Regional Weather Roundup
Issued by NWS Raleigh/Durham, NC

Home | Current Version | Previous Version | Text Only | Print | Product List | Glossary On
Versions: 1 2 3 4 5 6 7 8 9 10 11 12 13 14 15 16 17 18 19 20 21 22 23 24 25 26 27
000
ASUS42 KRAH 282110
RWRRAH
NORTH CAROLINA WEATHER ROUNDUP
NATIONAL WEATHER SERVICE RALEIGH NC
500 PM EDT TUE MAR 28 2017

NOTE: "FAIR" INDICATES FEW OR NO CLOUDS BELOW 12,000 FEET WITH NO
SIGNIFICANT WEATHER AND/OR OBSTRUCTIONS TO VISIBILITY.

NCZ001-053-055-056-065-067-282200-
WESTERN NORTH CAROLINA

CITY           SKY/WX    TMP DP  RH WIND       PRES   REMARKS
ASHEVILLE      SUNNY     72  47  40 N12       29.95F
JEFFERSON      CLOUDY    57  47  70 NW6       29.99S
MORGANTON      SUNNY     75  46  35 W8        29.97S
HICKORY        SUNNY     74  46  36 NW13G22   29.91S
RUTHERFORDTON  SUNNY     79  51  37 NW12      29.91F
MOUNT AIRY     MOSUNNY   72  54  53 W8        29.94R
BOONE          MOSUNNY   58  48  69 NW14G20   30.00F
$$

NCZ021-022-025-041-071-084-088-282200-
CENTRAL NORTH CAROLINA

CITY           SKY/WX    TMP DP  RH WIND       PRES   REMARKS
CHARLOTTE      PTSUNNY   77  52  41 N12G17    29.89S
GREENSBORO     MOSUNNY   77  52  41 NW10      29.87F
WINSTON-SALEM  MOSUNNY   75  45  34 W8G17     29.89F
RALEIGH-DURHAM PTSUNNY   78  54  43 W10G18    29.85F
FORT BRAGG     PTSUNNY   70  63  78 N6        29.85R
FAYETTEVILLE   PTSUNNY   80  59  48 W7        29.84F
BURLINGTON     CLOUDY    79  51  37 NW13G21   29.86S
LAURINBURG     MOSUNNY   82  58  43 NW7       29.85F
$$

NCZ011-015-027-028-043-044-047-080-103-282200-
NORTHEASTERN NORTH CAROLINA

CITY           SKY/WX    TMP DP  RH WIND       PRES   REMARKS
ROCKY MT-WILSO CLOUDY    75  61  61 SW8       29.84F
GREENVILLE     CLOUDY    73  61  64 SW5       29.88F
WASHINGTON     CLOUDY    74  62  67 SW9       29.85F
ELIZABETH CITY MOSUNNY   71  60  68 S14       29.84F
MANTEO         CLOUDY    66  60  80 S7        29.87F
CAPE HATTERAS  CLOUDY    67  62  84 S7        29.88F HAZE
$$

NCZ078-087-090-091-093-098-101-282200-
SOUTHEASTERN NORTH CAROLINA

CITY           SKY/WX    TMP DP  RH WIND       PRES   REMARKS
LUMBERTON      MOSUNNY   81  58  45 W13       29.84F
GOLDSBORO      MOSUNNY   79  60  52 W13       29.82F
KINSTON        MOSUNNY   75  61  60 SW5       29.86F
KENANSVILLE    CLOUDY    77  61  57 W6        29.84F
NEW BERN       LGT RAIN  68  64  87 NE6       29.88S
CHERRY POINT   PTSUNNY   68  61  77 S14       29.87F THUNDER
BEAUFORT       MOSUNNY   69  64  84 SW14      29.87F
JACKSONVILLE   LGT RAIN  70  65  84 S12       29.84F
WILMINGTON     SUNNY     78  60  53 SW18      29.86F
$$





USA.gov is the U.S. government's official web portal to all federal, state and local government web resources and services.